Skip Page Navigation
NASA JPL Caltech
NASA Logo - Jet Propulsion Laboratory + View the NASA Portal
+ Center for Near-Earth Object Studies
JPL Home Earth Solar System Stars & Galaxies Technology
JPL Solar System Dynamics
BODIES ORBITS EPHEMERIDES TOOLS PHYSICAL DATA DISCOVERY FAQ SITE MAP

Significant website upgrade scheduled for September 27. More details available here.

JPL Small-Body Database Browser
Search: [ help ]  
24551 (2048 P-L)
Classification: Main-belt Asteroid          SPK-ID: 2024551
Ephemeris | Orbit Diagram | Orbital Elements | Mission Design | Physical Parameters | Discovery Circumstances | Close-Approach Data ]

[ hide orbit diagram ]

For accurate long-term ephemerides, please instead use our Horizons system.This orbit viewer was implemented using two-body methods, and hence should not be used for determining accurate long-term trajectories (over several years or decades) or planetary encounter circumstances.


Orbital Elements at Epoch 2459396.5 (2021-Jul-01.0) TDB
Reference: JPL 30 (heliocentric ecliptic J2000)
 Element Value Uncertainty (1-sigma)   Units 
e .2333201071566669 3.8726e-08  
a 2.601496382099828 1.1473e-08 au
q 1.994514967460615 1.0007e-07 au
i 3.870709931692728 4.0146e-06 deg
node 320.4709307756316 6.4201e-05 deg
peri 291.3148513102228 6.4679e-05 deg
M 261.1530799623899 9.8367e-06 deg
tp 2459817.317611661624
(2022-Aug-25.81761166)
4.3212e-05 TDB
period 1532.615686361728
4.20
1.0138e-05
2.776e-08
d
yr
n .2348925456026116 1.5538e-09 deg/d
Q 3.208477796739041 1.4149e-08 au
  Orbit Determination Parameters
   # obs. used (total)      1501  
   data-arc span      22083 days (60.46 yr)  
   first obs. used      1960-09-24  
   last obs. used      2021-03-11  
   planetary ephem.      DE441  
   SB-pert. ephem.      SB441-N16  
   condition code      0  
   norm. resid. RMS      .48006  
   source      ORB  
   producer      Otto Matic  
   solution date      2021-Jul-09 10:17:46  

Additional Information
 Earth MOID = .984345 au 
 Jupiter MOID = 1.86582 au 
 T_jup = 3.372 
[ show covariance matrix ]

Ephemeris | Orbit Diagram | Orbital Elements | Mission Design | Physical Parameters | Discovery Circumstances | Close-Approach Data ]

Physical Parameter Table
Parameter Symbol Value Units Sigma Reference Notes
absolute magnitude H 14.53   n/a MPCxxxxx  
diameter diameter 9.055 km 0.052 urn:nasa:pds:neowise_diameters_albedos::2.0[mainbelt] (http://adsabs.harvard.edu/abs/2011ApJ...741...68M)  
geometric albedo albedo 0.033   0.004 urn:nasa:pds:neowise_diameters_albedos::2.0[mainbelt] (http://adsabs.harvard.edu/abs/2011ApJ...741...68M)  

24551 (2048 P-L)          Discovered 1960-Sep-24 by van Houten, C. J., van Houten-Groeneveld, I., Gehrels, T. at Palomar
Reference: 20010408/Numbers.arcLast Updated: 2004-04-19

[ hide close-approach data ]
Close-Approach Data   ...sorted by Date/Time (TDB)
Date/Time (TDB) Time Uncertainty
(days_HH:MM)
Body Nominal Distance (au) Minimum Distance (au) Maximum Distance (au) V-relative (km/s) V-infinity (km/s) JD (TDB) Time Uncertainty (minutes) Semi-major axis (km) Semi-minor axis (km) range-LOV angle (deg) N-sigma BP Orbit Ref. Reference Modified
1953-Jan-17 16:01 00:01 Jupiter 1.86412467363371 1.86412433062594 1.86412501664052 1.20612127591301 0.738895715169298 2434395.167081525 1.15537337156749 387.239926697934 213.740740333583 4.55796772917527 1743460.11956247 T 30 CATAB v2.0g-lin.ifort 2021-Jul-09 10:17:51 2021-Jul-09 10:17
2024-Aug-29 01:29 < 00:01 Jupiter 1.86228696451275 1.86228663241217 1.86228729661385 1.23172838660097 0.779420551386534 2460551.561698942 0.246957564001285 380.223289476065 147.151780611208 -11.0575031709208 1767231.14000337 T 30 CATAB v2.0g-lin.ifort 2021-Jul-09 10:17:51 2021-Jul-09 10:17
2083-Jan-27 22:24 00:01 Jupiter 1.95421727348647 1.95421653562756 1.95421801134537 1.64849739363884 1.36039604351615 2481887.433316953 1.33051404654548 138.360352943866 59.4510936365728 47.2578944096705 1563392.48467803 T 30 CATAB v2.0g-lin.ifort 2021-Jul-09 10:17:51 2021-Jul-09 10:17
2096-Apr-08 20:04 00:02 Jupiter 1.91161355096269 1.91161299237142 1.91161410955462 1.47772770288921 1.13907560733359 2486707.335895660 1.5479494198509 191.595309616681 55.773276264291 -38.9112915297683 2645570.16072717 T 30 CATAB v2.0g-lin.ifort 2021-Jul-09 10:17:51 2021-Jul-09 10:17
2154-Sep-13 04:22 00:03 Jupiter 1.88355972343752 1.88355895317301 1.88356049369979 1.29653400052074 0.884090263946718 2508047.682284834 2.67089377110402 388.123243563293 150.124230422134 -8.49512693183403 1059379.95430949 T 30 CATAB v2.0g-lin.ifort 2021-Jul-09 10:17:51 2021-Jul-09 10:17

Alternate Designations
 2048 P-L = 1998 SG139 
Ephemeris | Orbit Diagram | Orbital Elements | Mission Design | Physical Parameters | Discovery Circumstances | Close-Approach Data ]
ABOUT SSD CREDITS/AWARDS PRIVACY/COPYRIGHT GLOSSARY LINKS
FirstGov 2021-Sep-23 17:47 UT
(server date/time)  
NASA Home Page
Site Manager:   Ryan S. Park
Webmaster  Alan B. Chamberlin